sat.trackr.live / text

‹ back to catalog

THEMIS E

NORAD 30798 · 2007-004E

PAYLOAD ACTIVE UNKNOWN

§ Identity

Operator
Country
US
Launch date
2007-02-17
Launch site
AFETR
Launch vehicle
Mass (kg)
RCS (m²)
0.63

External: N2YO · Heavens-Above · Gunter

§ Orbital elements

Epoch: 2026-09-19T09:55:02.488800Z

Period
1,639.35 min
Inclination
7.1241°
Eccentricity
0.8417278
Mean motion
0.87839719 rev/d
Perigee alt
911.1 km
Apogee alt
78,442.2 km
Semi-major
46,054.8 km
B*
0.0000e+0
RAAN
90.9892°
Arg perigee
234.0701°
Mean anomaly
25.4178°
Rev number
6,675

§ Raw data

THEMIS E1 30798U 07004E   26262.41322325 -.00000522  00000+0  00000+0 0  99962 30798   7.1241  90.9892 8417278 234.0701  25.4178  0.87839719 66758

JSON: /api/v1/satellites/30798 · /tle

For live sub-satellite position, see the globe view (requires WebGL).

§ Visibility from observer

Set your observer location to see the next 7 days of passes ≥ 10°. The values pass through the URL so the page stays shareable.

No JS? Fill the form by hand. The geolocation button needs JavaScript.